Retour au catalogue

CZ-6A DEB

ActifSSO
NORAD 55875·DEBRIS·🇨🇳 China

Lancé Nov 11, 2022 depuis Taiyuan Satellite Launch Center

Loading…

Prochains Passages (prochaines 24 heures)

TLE

FraisSource: Space-Track

Époque: Sep 14, 2026, 11:27 UTC

1 55875U 22151ZX  26257.47770127  .00001889  00000-0  89621-3 0  9993
2 55875  98.8237 266.2890 0043538  59.1077 301.4369 14.20234653186162

Suivez CZ-6A DEB en temps réel avec AllMySat

Download on the App Store